• In Uzbekistan
  • List of Countries
  • For 7 days
  • Water Temperature
  • Satellite Maps
  • Weather Map
  • Weather Widgets
  • user-avatar
    Login

    Hourly Weather Calgary

    Today, 21 January, Sunday

    Time Temperature Precipitation Wind Pressure Humidity
    00:00 -8°C° 0 mm 3 mps 664 mmHg 70%
    01:00 -8°C° 0 mm 3 mps 664 mmHg 70%
    02:00 -7°C° 0 mm 2 mps 664 mmHg 70%
    03:00 -7°C° 0 mm 2 mps 664 mmHg 70%
    04:00 -7°C° 0 mm 2 mps 664 mmHg 70%
    05:00 -7°C° 0 mm 2 mps 664 mmHg 70%
    06:00 -7°C° 0 mm 2 mps 664 mmHg 70%
    07:00 -7°C° 0 mm 2 mps 664 mmHg 71%
    08:00 -7°C° 0 mm 3 mps 663 mmHg 71%
    09:00 -6°C° 0 mm 3 mps 663 mmHg 72%
    10:00 -5°C° 0 mm 3 mps 663 mmHg 72%
    11:00 -4°C° 0 mm 3 mps 663 mmHg 72%
    12:00 -2°C° 0 mm 3 mps 662 mmHg 71%
    13:00 -1°C° 0 mm 3 mps 662 mmHg 71%
    14:00 -2°C° 0 mm 3 mps 661 mmHg 71%
    15:00 -2°C° 0 mm 3 mps 661 mmHg 72%
    16:00 -4°C° 0 mm 3 mps 660 mmHg 73%
    17:00 -4°C° 0 mm 3 mps 660 mmHg 73%
    18:00 -4°C° 0 mm 4 mps 660 mmHg 74%
    19:00 -4°C° 0 mm 4 mps 660 mmHg 75%
    20:00 -4°C° 0 mm 4 mps 660 mmHg 75%
    21:00 -5°C° 0 mm 4 mps 660 mmHg 75%
    22:00 -5°C° 0 mm 3 mps 660 mmHg 76%
    23:00 -5°C° 0 mm 4 mps 660 mmHg 75%

    Tomorrow, 22 January, Monday

    Time Temperature Precipitation Wind Pressure Humidity
    00:00 -5°C° 0 mm 4 mps 660 mmHg 75%
    01:00 -7°C° 0 mm 4 mps 660 mmHg 74%
    02:00 -7°C° 0 mm 4 mps 660 mmHg 74%
    03:00 -7°C° 0 mm 4 mps 660 mmHg 73%
    04:00 -6°C° 0 mm 5 mps 660 mmHg 73%
    05:00 -6°C° 0 mm 5 mps 661 mmHg 70%
    06:00 -6°C° 0 mm 5 mps 662 mmHg 68%
    07:00 -6°C° 0 mm 5 mps 662 mmHg 66%
    08:00 -5°C° 0 mm 5 mps 662 mmHg 64%
    09:00 -5°C° 0 mm 5 mps 663 mmHg 63%
    10:00 -4°C° 0 mm 5 mps 663 mmHg 61%
    11:00 -4°C° 0 mm 5 mps 664 mmHg 61%
    12:00 -2°C° 0 mm 4 mps 664 mmHg 61%
    13:00 -2°C° 0 mm 4 mps 664 mmHg 61%
    14:00 -2°C° 0 mm 3 mps 664 mmHg 62%
    15:00 -4°C° 0 mm 3 mps 664 mmHg 62%
    16:00 -4°C° 0 mm 2 mps 664 mmHg 63%
    17:00 -6°C° 0 mm 3 mps 664 mmHg 64%
    18:00 -6°C° 0 mm 3 mps 665 mmHg 65%
    19:00 -7°C° 0 mm 3 mps 665 mmHg 66%
    20:00 -7°C° 0 mm 3 mps 665 mmHg 66%
    21:00 -7°C° 0 mm 3 mps 666 mmHg 66%
    22:00 -7°C° 0 mm 3 mps 666 mmHg 66%
    23:00 -7°C° 0 mm 3 mps 666 mmHg 67%

    Day after tomorrow, 23 January, Tuesday

    Time Temperature Precipitation Wind Pressure Humidity
    00:00 -7°C° 0 mm 3 mps 667 mmHg 68%
    01:00 -7°C° 0 mm 3 mps 667 mmHg 69%
    02:00 -8°C° 0 mm 3 mps 667 mmHg 69%
    03:00 -8°C° 0 mm 2 mps 667 mmHg 70%
    04:00 -8°C° 0 mm 2 mps 667 mmHg 71%
    05:00 -9°C° 0 mm 2 mps 667 mmHg 71%
    06:00 -9°C° 0 mm 2 mps 667 mmHg 71%
    07:00 -9°C° 0 mm 2 mps 667 mmHg 70%
    08:00 -8°C° 0 mm 2 mps 667 mmHg 70%
    09:00 -8°C° 0 mm 2 mps 667 mmHg 70%
    10:00 -6°C° 0 mm 1 mps 667 mmHg 70%
    11:00 -4°C° 0 mm 1 mps 667 mmHg 70%
    12:00 -3°C° 0 mm 1 mps 666 mmHg 69%
    13:00 -2°C° 0 mm 1 mps 666 mmHg 68%
    14:00 -3°C° 0 mm 1 mps 665 mmHg 70%
    15:00 -6°C° 0 mm 1 mps 665 mmHg 72%
    16:00 -7°C° 0 mm 1 mps 664 mmHg 74%
    17:00 -7°C° 0 mm 1 mps 664 mmHg 75%
    18:00 -8°C° 0 mm 2 mps 664 mmHg 76%
    19:00 -9°C° 0 mm 2 mps 664 mmHg 77%
    20:00 -9°C° 0 mm 2 mps 663 mmHg 77%
    21:00 -8°C° 0 mm 1 mps 663 mmHg 78%
    22:00 -8°C° 0 mm 1 mps 662 mmHg 78%
    23:00 -8°C° 0 mm 1 mps 662 mmHg 79%

    24 January, Wednesday

    Time Temperature Precipitation Wind Pressure Humidity
    00:00 -8°C° 0 mm 1 mps 661 mmHg 79%
    01:00 -7°C° 0 mm 1 mps 661 mmHg 80%
    02:00 -7°C° 0 mm 1 mps 661 mmHg 80%
    03:00 -7°C° 0 mm 1 mps 660 mmHg 81%
    04:00 -7°C° 0 mm 1 mps 660 mmHg 82%
    05:00 -7°C° 0 mm 1 mps 659 mmHg 82%
    06:00 -7°C° 0 mm 1 mps 659 mmHg 83%
    07:00 -8°C° 0 mm 1 mps 659 mmHg 83%
    08:00 -7°C° 0 mm 1 mps 659 mmHg 82%
    09:00 -6°C° 0 mm 1 mps 659 mmHg 81%
    10:00 -4°C° 0 mm 1 mps 659 mmHg 81%
    11:00 -3°C° 0 mm 1 mps 658 mmHg 81%
    12:00 -3°C° 0 mm 1 mps 658 mmHg 81%
    13:00 -2°C° 0 mm 1 mps 658 mmHg 81%
    14:00 -3°C° 0 mm 1 mps 657 mmHg 83%
    15:00 -4°C° 0 mm 1 mps 657 mmHg 86%
    16:00 -6°C° 0 mm 1 mps 656 mmHg 88%
    17:00 -7°C° 0 mm 1 mps 656 mmHg 88%
    18:00 -7°C° 0 mm 1 mps 656 mmHg 89%
    19:00 -7°C° 0 mm 1 mps 656 mmHg 90%
    20:00 -7°C° 0 mm 1 mps 656 mmHg 89%
    21:00 -6°C° 0 mm 1 mps 656 mmHg 89%
    22:00 -6°C° 0 mm 1 mps 655 mmHg 89%
    23:00 -6°C° 0 mm 1 mps 655 mmHg 90%

    25 January, Thursday

    Time Temperature Precipitation Wind Pressure Humidity
    00:00 -7°C° 0 mm 1 mps 654 mmHg 92%
    01:00 -7°C° 0 mm 1 mps 654 mmHg 94%
    02:00 -8°C° 0 mm 2 mps 654 mmHg 94%
    03:00 -8°C° 0 mm 2 mps 654 mmHg 95%
    04:00 -9°C° 0 mm 2 mps 654 mmHg 95%
    05:00 -9°C° 0 mm 2 mps 654 mmHg 95%
    06:00 -9°C° 0 mm 2 mps 654 mmHg 94%
    07:00 -10°C° 0 mm 3 mps 654 mmHg 94%
    08:00 -9°C° 0 mm 2 mps 654 mmHg 92%
    09:00 -8°C° 0 mm 2 mps 655 mmHg 91%
    10:00 -8°C° 0 mm 2 mps 655 mmHg 89%
    11:00 -8°C° 0.1 mm 2 mps 655 mmHg 89%
    12:00 -7°C° 0.1 mm 2 mps 655 mmHg 89%
    13:00 -8°C° 0.1 mm 3 mps 655 mmHg 90%
    14:00 -7°C° 0.2 mm 2 mps 655 mmHg 91%
    15:00 -8°C° 0.2 mm 2 mps 656 mmHg 92%
    16:00 -8°C° 0.2 mm 2 mps 656 mmHg 94%
    17:00 -8°C° 0.3 mm 2 mps 657 mmHg 94%
    18:00 -8°C° 0.3 mm 1 mps 657 mmHg 95%
    19:00 -8°C° 0.3 mm 1 mps 657 mmHg 96%
    20:00 -8°C° 0.2 mm 1 mps 658 mmHg 95%
    21:00 -8°C° 0.2 mm 1 mps 658 mmHg 95%
    22:00 -9°C° 0.2 mm 2 mps 658 mmHg 95%
    23:00 -10°C° 0.1 mm 2 mps 658 mmHg 94%

    26 January, Friday

    Time Temperature Precipitation Wind Pressure Humidity
    00:00 -10°C° 0.1 mm 2 mps 659 mmHg 94%
    01:00 -12°C° 0.1 mm 2 mps 659 mmHg 94%
    02:00 -12°C° 0 mm 2 mps 659 mmHg 94%
    03:00 -10°C° 0 mm 2 mps 660 mmHg 94%
    04:00 -10°C° 0 mm 2 mps 660 mmHg 94%
    05:00 -10°C° 0 mm 2 mps 661 mmHg 94%
    06:00 -10°C° 0 mm 2 mps 661 mmHg 93%
    07:00 -10°C° 0 mm 2 mps 662 mmHg 93%
    08:00 -9°C° 0.1 mm 2 mps 662 mmHg 91%
    09:00 -9°C° 0.1 mm 2 mps 663 mmHg 90%
    10:00 -9°C° 0.1 mm 3 mps 663 mmHg 88%
    11:00 -9°C° 0.1 mm 3 mps 663 mmHg 87%
    12:00 -8°C° 0.1 mm 3 mps 664 mmHg 85%
    13:00 -8°C° 0.1 mm 3 mps 664 mmHg 84%
    14:00 -8°C° 0 mm 2 mps 664 mmHg 87%
    15:00 -8°C° 0 mm 2 mps 665 mmHg 90%
    16:00 -8°C° 0 mm 1 mps 665 mmHg 92%
    17:00 -10°C° 0 mm 2 mps 666 mmHg 92%
    18:00 -10°C° 0 mm 2 mps 667 mmHg 93%
    19:00 -12°C° 0 mm 2 mps 667 mmHg 93%
    20:00 -12°C° 0 mm 2 mps 668 mmHg 92%
    21:00 -13°C° 0 mm 2 mps 668 mmHg 91%
    22:00 -13°C° 0 mm 2 mps 669 mmHg 90%
    23:00 -13°C° 0 mm 2 mps 669 mmHg 89%
    Show more